When you browse on this site, cookies collect data to enhance your experience and personalize the content and advertising you see.
Visit our Privacy Policy to learn more. By continuing to use the site, you agree to this use of cookies and data.

Hourly Weather Billericay

Today, 3 July, Friday

Time Temperature Precipitation Wind Pressure Humidity
00:00 +14°C° 0 mm 2 mps 756 mmHg 89%
01:00 +13°C° 0 mm 3 mps 756 mmHg 88%
02:00 +12°C° 0 mm 3 mps 756 mmHg 88%
03:00 +12°C° 0 mm 4 mps 756 mmHg 87%
04:00 +12°C° 0 mm 4 mps 756 mmHg 86%
05:00 +13°C° 0 mm 4 mps 756 mmHg 85%
06:00 +13°C° 0 mm 4 mps 756 mmHg 85%
07:00 +14°C° 0 mm 5 mps 756 mmHg 79%
08:00 +15°C° 0 mm 5 mps 757 mmHg 74%
09:00 +15°C° 0 mm 5 mps 757 mmHg 69%
10:00 +16°C° 0 mm 6 mps 757 mmHg 67%
11:00 +17°C° 0 mm 6 mps 757 mmHg 65%
12:00 +17°C° 0 mm 6 mps 757 mmHg 63%
13:00 +19°C° 0 mm 6 mps 757 mmHg 63%
14:00 +18°C° 0 mm 7 mps 756 mmHg 62%
15:00 +20°C° 0 mm 7 mps 756 mmHg 61%
16:00 +18°C° 0 mm 7 mps 756 mmHg 65%
17:00 +17°C° 0 mm 7 mps 756 mmHg 69%
18:00 +16°C° 0 mm 7 mps 756 mmHg 72%
19:00 +16°C° 0.2 mm 7 mps 756 mmHg 76%
20:00 +15°C° 0.2 mm 7 mps 756 mmHg 81%
21:00 +14°C° 0.2 mm 7 mps 756 mmHg 85%
22:00 +15°C° 0 mm 7 mps 756 mmHg 86%
23:00 +15°C° 0 mm 7 mps 755 mmHg 87%

Tomorrow, 4 July, Saturday

Time Temperature Precipitation Wind Pressure Humidity
00:00 +15°C° 0 mm 7 mps 755 mmHg 88%
01:00 +15°C° 0 mm 7 mps 755 mmHg 89%
02:00 +15°C° 0 mm 7 mps 755 mmHg 89%
03:00 +15°C° 0 mm 7 mps 754 mmHg 90%
04:00 +16°C° 0.1 mm 7 mps 754 mmHg 90%
05:00 +16°C° 0.1 mm 7 mps 754 mmHg 90%
06:00 +16°C° 0.1 mm 7 mps 754 mmHg 90%
07:00 +16°C° 0.3 mm 7 mps 754 mmHg 90%
08:00 +17°C° 0.3 mm 7 mps 753 mmHg 90%
09:00 +17°C° 0.3 mm 7 mps 753 mmHg 90%
10:00 +17°C° 0.4 mm 7 mps 753 mmHg 91%
11:00 +17°C° 0.4 mm 7 mps 753 mmHg 91%
12:00 +17°C° 0.4 mm 8 mps 753 mmHg 91%
13:00 +17°C° 0 mm 7 mps 753 mmHg 89%
14:00 +18°C° 0 mm 7 mps 752 mmHg 87%
15:00 +20°C° 0 mm 7 mps 752 mmHg 85%
16:00 +18°C° 0 mm 7 mps 752 mmHg 85%
17:00 +19°C° 0 mm 6 mps 752 mmHg 84%
18:00 +19°C° 0 mm 6 mps 752 mmHg 84%
19:00 +19°C° 0 mm 6 mps 753 mmHg 84%
20:00 +19°C° 0 mm 6 mps 753 mmHg 85%
21:00 +19°C° 0 mm 5 mps 754 mmHg 85%
22:00 +17°C° 0 mm 6 mps 753 mmHg 85%
23:00 +17°C° 0 mm 6 mps 753 mmHg 85%

Day after tomorrow, 5 July, Sunday

Time Temperature Precipitation Wind Pressure Humidity
00:00 +17°C° 0 mm 6 mps 753 mmHg 84%
01:00 +17°C° 0 mm 6 mps 753 mmHg 83%
02:00 +17°C° 0 mm 6 mps 753 mmHg 83%
03:00 +16°C° 0 mm 7 mps 752 mmHg 82%
04:00 +17°C° 0 mm 7 mps 752 mmHg 81%
05:00 +17°C° 0 mm 8 mps 752 mmHg 80%
06:00 +17°C° 0 mm 8 mps 751 mmHg 79%
07:00 +18°C° 0 mm 9 mps 751 mmHg 79%
08:00 +18°C° 0 mm 9 mps 751 mmHg 78%
09:00 +19°C° 0 mm 10 mps 751 mmHg 78%
10:00 +19°C° 0.1 mm 9 mps 751 mmHg 76%
11:00 +19°C° 0.1 mm 9 mps 751 mmHg 74%
12:00 +19°C° 0.1 mm 9 mps 751 mmHg 71%
13:00 +21°C° 0 mm 9 mps 752 mmHg 67%
14:00 +21°C° 0 mm 9 mps 752 mmHg 62%
15:00 +21°C° 0 mm 9 mps 752 mmHg 57%
16:00 +20°C° 0 mm 8 mps 752 mmHg 58%
17:00 +18°C° 0 mm 8 mps 752 mmHg 59%
18:00 +17°C° 0 mm 7 mps 752 mmHg 61%
19:00 +16°C° 0 mm 7 mps 753 mmHg 63%
20:00 +15°C° 0 mm 6 mps 753 mmHg 65%
21:00 +14°C° 0 mm 6 mps 753 mmHg 67%
22:00 +13°C° 0 mm 6 mps 753 mmHg 68%
23:00 +12°C° 0 mm 7 mps 753 mmHg 69%

6 July, Monday

Time Temperature Precipitation Wind Pressure Humidity
00:00 +11°C° 0 mm 7 mps 753 mmHg 70%
01:00 +11°C° 0 mm 7 mps 753 mmHg 71%
02:00 +10°C° 0 mm 6 mps 753 mmHg 73%
03:00 +10°C° 0 mm 6 mps 753 mmHg 74%
04:00 +10°C° 0 mm 7 mps 753 mmHg 73%
05:00 +11°C° 0 mm 7 mps 754 mmHg 72%
06:00 +11°C° 0 mm 8 mps 754 mmHg 70%
07:00 +12°C° 0 mm 8 mps 755 mmHg 67%
08:00 +13°C° 0 mm 8 mps 755 mmHg 64%
09:00 +15°C° 0 mm 8 mps 756 mmHg 61%
10:00 +16°C° 0.1 mm 8 mps 757 mmHg 60%
11:00 +17°C° 0.1 mm 8 mps 757 mmHg 58%
12:00 +17°C° 0.1 mm 8 mps 758 mmHg 57%
13:00 +18°C° 0.1 mm 7 mps 758 mmHg 57%
14:00 +19°C° 0.1 mm 6 mps 759 mmHg 57%
15:00 +20°C° 0.1 mm 6 mps 760 mmHg 56%
16:00 +19°C° 0.2 mm 5 mps 760 mmHg 60%
17:00 +18°C° 0.2 mm 4 mps 761 mmHg 64%
18:00 +18°C° 0.2 mm 4 mps 761 mmHg 67%
19:00 +16°C° 0.1 mm 3 mps 761 mmHg 70%
20:00 +14°C° 0.1 mm 3 mps 762 mmHg 74%
21:00 +14°C° 0.1 mm 2 mps 762 mmHg 77%
22:00 +13°C° 0 mm 2 mps 762 mmHg 78%
23:00 +11°C° 0 mm 3 mps 763 mmHg 78%

7 July, Tuesday

Time Temperature Precipitation Wind Pressure Humidity
00:00 +11°C° 0 mm 3 mps 763 mmHg 79%
01:00 +10°C° 0 mm 3 mps 763 mmHg 80%
02:00 +9°C° 0 mm 3 mps 763 mmHg 80%
03:00 +9°C° 0 mm 3 mps 763 mmHg 80%
04:00 +9°C° 0 mm 3 mps 763 mmHg 79%
05:00 +10°C° 0 mm 4 mps 763 mmHg 78%
06:00 +11°C° 0 mm 4 mps 763 mmHg 76%
07:00 +12°C° 0 mm 4 mps 763 mmHg 70%
08:00 +14°C° 0 mm 3 mps 763 mmHg 64%
09:00 +16°C° 0 mm 3 mps 763 mmHg 58%
10:00 +17°C° 0 mm 3 mps 763 mmHg 55%
11:00 +19°C° 0 mm 3 mps 763 mmHg 51%
12:00 +20°C° 0 mm 3 mps 763 mmHg 48%
13:00 +20°C° 0 mm 3 mps 763 mmHg 47%
14:00 +20°C° 0 mm 3 mps 763 mmHg 47%
15:00 +21°C° 0 mm 3 mps 763 mmHg 47%
16:00 +20°C° 0 mm 3 mps 763 mmHg 50%
17:00 +20°C° 0 mm 3 mps 762 mmHg 54%
18:00 +19°C° 0 mm 3 mps 762 mmHg 57%
19:00 +18°C° 0 mm 2 mps 762 mmHg 63%
20:00 +16°C° 0 mm 1 mps 762 mmHg 68%
21:00 +15°C° 0 mm 1 mps 763 mmHg 74%
22:00 +14°C° 0 mm 1 mps 762 mmHg 75%
23:00 +14°C° 0 mm 1 mps 762 mmHg 76%

8 July, Wednesday

Time Temperature Precipitation Wind Pressure Humidity
00:00 +14°C° 0 mm 1 mps 762 mmHg 77%
01:00 +14°C° 0 mm 1 mps 762 mmHg 78%
02:00 +13°C° 0 mm 1 mps 762 mmHg 78%
03:00 +13°C° 0 mm 2 mps 762 mmHg 79%
04:00 +14°C° 0 mm 2 mps 762 mmHg 77%
05:00 +15°C° 0 mm 2 mps 762 mmHg 75%
06:00 +16°C° 0 mm 2 mps 761 mmHg 74%
07:00 +17°C° 0 mm 3 mps 761 mmHg 68%
08:00 +19°C° 0 mm 3 mps 761 mmHg 62%
09:00 +20°C° 0 mm 3 mps 761 mmHg 56%
10:00 +21°C° 0 mm 3 mps 761 mmHg 53%
11:00 +22°C° 0 mm 3 mps 761 mmHg 50%
12:00 +24°C° 0 mm 3 mps 760 mmHg 47%
13:00 +25°C° 0 mm 4 mps 760 mmHg 47%
14:00 +25°C° 0 mm 4 mps 760 mmHg 48%
15:00 +25°C° 0 mm 4 mps 759 mmHg 48%
16:00 +25°C° 0 mm 4 mps 759 mmHg 52%
17:00 +23°C° 0 mm 4 mps 758 mmHg 56%
18:00 +22°C° 0 mm 4 mps 758 mmHg 59%
19:00 +21°C° 0 mm 3 mps 758 mmHg 64%
20:00 +19°C° 0 mm 3 mps 758 mmHg 68%
21:00 +17°C° 0 mm 2 mps 758 mmHg 73%
22:00 +17°C° 0 mm 2 mps 757 mmHg 75%
23:00 +16°C° 0 mm 2 mps 757 mmHg 77%
Show more